Home > Weather > Augusta > Past weeks

Flag for USA Past Weather in Augusta, Georgia, USA — Yesterday and Last 2 Weeks

Now
79 °F

Clear.


Feels Like: 82 °F
Forecast: 75 / 96 °F
Wind: 3 mph from Southwest

Location: Daniel Field

Current Time: Jul 23, 2016 at 5:15:47 AM

Latest Report: Jul 23, 2016 at 4:53 AM


Visibility: 10 mi

Pressure: 30.00 "Hg

Humidity: 77%

Dew Point: 71 °F

Location of AugustaLocation

Past Weather in Augusta — Graph

°F

Augusta Temperature Yesterday

Maximum temperature yesterday: 95 °F (at 5:53 PM)
Minimum temperature yesterday: 73 °F (at 6:53 AM)
Average temperature yesterday: 85 °F

High & Low Weather Summary for the Past Weeks

 TemperatureHumidityPressure
High99 °F (Jul 8, 3:53 PM)94% (Jul 16, 4:53 AM)30.27 "Hg (Jul 16, 4:53 AM)
Low73 °F (Jul 17, 3:53 AM)29% (Jul 13, 5:53 PM)29.92 "Hg (Jul 8, 5:53 PM)
Average85 °F64%30.08 "Hg
* Reported Jul 8 3:53 AM — Jul 23 3:53 AM, Augusta, Weather by CustomWeather, © 2016

Note: Actual official high and low records may vary slightly from our data, if they occured in-between our weather recording intervals... More about our weather records

Advertising

Augusta Weather History for the Previous 24 Hours

Scroll right to see more
 ConditionsComfort  
Time TempWeatherWind HumidityBarometerVisibility
3:53 AM
Sat, Jul 23
79 °FClear.3 mph77%30.00 "Hg10 mi
2:53 AM80 °FClear.6 mph74%30.01 "Hg10 mi
1:53 AM82 °FClear.5 mph67%30.02 "Hg10 mi
12:53 AM83 °FClear.6 mph65%30.03 "Hg10 mi
11:53 PM
Fri, Jul 22
84 °FPassing clouds.3 mph65%30.03 "Hg10 mi
10:53 PM85 °FPassing clouds.3 mph65%30.02 "Hg10 mi
9:53 PM87 °FClear.5 mph61%30.01 "Hg10 mi
8:53 PM89 °FSunny.5 mph50%30.01 "Hg10 mi
7:53 PM92 °FSunny.No wind43%30.00 "Hg10 mi
6:53 PM95 °FSunny.8 mph40%29.97 "Hg10 mi
5:53 PM95 °FScattered clouds.5 mph41%29.98 "Hg10 mi
4:53 PM93 °FScattered clouds.6 mph46%30.01 "Hg10 mi
3:53 PM94 °FSunny.3 mph46%30.03 "Hg10 mi
2:53 PM94 °FScattered clouds.N/A46%30.07 "Hg10 mi
1:53 PM91 °FSunny.5 mph52%30.09 "Hg10 mi
12:53 PM91 °FPassing clouds.6 mph50%30.10 "Hg10 mi
11:53 AM89 °FSunny.7 mph53%30.10 "Hg10 mi
10:53 AM86 °FSunny.7 mph59%30.10 "Hg10 mi
9:53 AM83 °FSunny.No wind65%30.10 "Hg10 mi
8:53 AM79 °FSunny.No wind74%30.10 "Hg10 mi
7:53 AM76 °FSunny.No wind82%30.11 "Hg10 mi
6:53 AM73 °FClear.No wind90%30.11 "Hg10 mi
5:53 AM74 °FClear.3 mph88%30.10 "Hg10 mi
Weather by CustomWeather, © 2016

See weather overviewHow to use our weather pages